Time,TemperatureF,DewpointF,PressureIn,WindDirection,WindDirectionDegrees,WindSpeedMPH,WindSpeedGustMPH,Humidity,HourlyPrecipIn,Conditions,Clouds,dailyrainin,SoftwareType,DateUTC
2013-10-14 00:00:00,70.7,66.3,30.13,ESE,116,0.0,0.0,86,0.00,,---,0.00,VWS V14.00,2013-10-14 05:00:00,
2013-10-14 00:10:00,70.7,66.3,30.13,SSE,148,0.0,4.5,86,0.00,,---,0.00,VWS V14.00,2013-10-14 05:10:00,
2013-10-14 00:20:00,70.7,66.7,30.13,ENE,67,0.0,0.0,87,0.00,,---,0.00,VWS V14.00,2013-10-14 05:20:00,
2013-10-14 00:30:00,70.5,66.8,30.10,ENE,66,0.0,0.0,88,0.00,,---,0.00,VWS V14.00,2013-10-14 05:30:00,
2013-10-14 00:40:00,70.3,66.6,30.10,ENE,67,0.0,0.0,88,0.00,,---,0.00,VWS V14.00,2013-10-14 05:40:00,
2013-10-14 00:50:00,70.2,66.8,30.10,ENE,67,0.0,0.0,89,0.00,,---,0.00,VWS V14.00,2013-10-14 05:50:00,
2013-10-14 01:00:00,70.0,66.6,30.10,ENE,66,0.0,0.0,89,0.00,,---,0.00,VWS V14.00,2013-10-14 06:00:00,
2013-10-14 01:10:00,70.0,66.6,30.10,ENE,65,0.0,0.0,89,0.00,,---,0.00,VWS V14.00,2013-10-14 06:10:00,
2013-10-14 01:20:00,70.0,66.9,30.10,ENE,66,0.0,0.0,90,0.00,,---,0.00,VWS V14.00,2013-10-14 06:20:00,
2013-10-14 01:30:00,69.8,66.7,30.10,ENE,66,0.0,0.0,90,0.00,,---,0.00,VWS V14.00,2013-10-14 06:30:00,
2013-10-14 01:40:00,69.8,67.1,30.10,ENE,66,0.0,3.1,91,0.00,,---,0.00,VWS V14.00,2013-10-14 06:40:00,
2013-10-14 01:50:00,69.8,67.1,30.10,ENE,66,0.0,0.0,91,0.00,,---,0.00,VWS V14.00,2013-10-14 06:50:00,
2013-10-14 02:00:00,69.6,66.9,30.10,ESE,119,0.0,3.6,91,0.00,,---,0.00,VWS V14.00,2013-10-14 07:00:00,
2013-10-14 02:10:00,69.6,67.2,30.10,ESE,116,0.0,4.0,92,0.04,,---,0.04,VWS V14.00,2013-10-14 07:10:00,
2013-10-14 02:20:00,69.6,67.2,30.10,SSE,166,3.6,4.5,92,0.04,,---,0.04,VWS V14.00,2013-10-14 07:20:00,
2013-10-14 02:30:00,69.4,67.0,30.10,ESE,106,0.0,4.9,92,0.04,,---,0.04,VWS V14.00,2013-10-14 07:30:00,
2013-10-14 02:40:00,69.4,67.3,30.10,ENE,69,0.0,5.8,93,0.04,,---,0.04,VWS V14.00,2013-10-14 07:40:00,
2013-10-14 02:50:00,69.3,67.2,30.10,SSE,155,3.1,3.1,93,0.08,,---,0.08,VWS V14.00,2013-10-14 07:50:00,
2013-10-14 03:00:00,69.3,67.2,30.10,ENE,72,0.0,4.5,93,0.08,,---,0.08,VWS V14.00,2013-10-14 08:00:00,
2013-10-14 03:10:00,69.3,67.2,30.10,East,87,0.0,4.0,93,0.08,,---,0.08,VWS V14.00,2013-10-14 08:10:00,
2013-10-14 03:20:00,69.3,67.5,30.10,SSE,155,0.0,4.5,94,0.04,,---,0.08,VWS V14.00,2013-10-14 08:20:00,
2013-10-14 03:30:00,69.3,67.5,30.10,SE,131,0.0,4.5,94,0.08,,---,0.12,VWS V14.00,2013-10-14 08:30:00,
2013-10-14 03:40:00,69.3,67.5,30.07,East,84,0.0,4.5,94,0.08,,---,0.12,VWS V14.00,2013-10-14 08:40:00,
2013-10-14 03:50:00,69.3,67.5,30.07,ESE,111,0.0,5.4,94,0.08,,---,0.12,VWS V14.00,2013-10-14 08:50:00,
2013-10-14 04:00:00,69.3,67.8,30.07,ESE,112,0.0,0.0,95,0.04,,---,0.12,VWS V14.00,2013-10-14 09:00:00,
2013-10-14 04:10:00,69.3,67.8,30.07,SSE,166,0.0,4.0,95,0.04,,---,0.12,VWS V14.00,2013-10-14 09:10:00,
2013-10-14 04:20:00,69.3,67.8,30.07,South,174,0.0,4.5,95,0.08,,---,0.16,VWS V14.00,2013-10-14 09:20:00,
2013-10-14 04:30:00,69.3,67.8,30.07,SE,129,0.0,4.5,95,0.08,,---,0.16,VWS V14.00,2013-10-14 09:30:00,
2013-10-14 04:40:00,69.3,67.8,30.07,SSE,168,0.0,5.8,95,0.04,,---,0.16,VWS V14.00,2013-10-14 09:40:00,
2013-10-14 04:50:00,69.3,68.1,30.07,South,188,0.0,5.4,96,0.08,,---,0.20,VWS V14.00,2013-10-14 09:50:00,
2013-10-14 05:00:00,69.3,68.1,30.07,SE,143,3.1,5.8,96,0.12,,---,0.24,VWS V14.00,2013-10-14 10:00:00,
2013-10-14 05:10:00,69.3,68.1,30.07,ESE,120,0.0,4.0,96,0.12,,---,0.24,VWS V14.00,2013-10-14 10:10:00,
2013-10-14 05:20:00,69.3,68.1,30.07,ESE,113,0.0,5.4,96,0.12,,---,0.24,VWS V14.00,2013-10-14 10:20:00,
2013-10-14 05:30:00,69.3,68.1,30.04,South,184,3.6,4.5,96,0.08,,---,0.24,VWS V14.00,2013-10-14 10:30:00,
2013-10-14 05:40:00,69.3,68.1,30.04,SE,144,2.7,5.4,96,0.08,,---,0.24,VWS V14.00,2013-10-14 10:40:00,
2013-10-14 05:50:00,69.3,68.1,30.04,SSE,162,3.6,5.4,96,0.12,,---,0.28,VWS V14.00,2013-10-14 10:50:00,
2013-10-14 06:00:00,69.3,68.4,30.07,ENE,61,3.6,4.9,97,0.08,,---,0.28,VWS V14.00,2013-10-14 11:00:00,
2013-10-14 06:10:00,69.4,68.6,30.04,SE,142,0.0,5.8,97,0.04,,---,0.28,VWS V14.00,2013-10-14 11:10:00,
2013-10-14 06:20:00,69.4,68.6,30.04,SE,125,0.0,4.9,97,0.04,,---,0.28,VWS V14.00,2013-10-14 11:20:00,
2013-10-14 06:30:00,69.4,68.6,30.04,SSE,168,2.7,4.5,97,0.04,,---,0.28,VWS V14.00,2013-10-14 11:30:00,
2013-10-14 06:40:00,69.4,68.6,30.04,South,175,0.0,6.3,97,0.08,,---,0.31,VWS V14.00,2013-10-14 11:40:00,
2013-10-14 06:50:00,69.4,68.6,30.04,SSE,159,2.7,6.7,97,0.08,,---,0.31,VWS V14.00,2013-10-14 11:50:00,
2013-10-14 07:00:00,69.4,68.6,30.04,SSW,206,3.6,3.6,97,0.04,,---,0.31,VWS V14.00,2013-10-14 12:00:00,
2013-10-14 07:10:00,69.4,68.6,30.04,ESE,105,0.0,4.0,97,0.08,,---,0.35,VWS V14.00,2013-10-14 12:10:00,
2013-10-14 07:20:00,69.4,68.6,30.04,SE,143,0.0,3.6,97,0.08,,---,0.35,VWS V14.00,2013-10-14 12:20:00,
2013-10-14 07:30:00,69.4,68.6,30.04,East,100,0.0,4.0,97,0.08,,---,0.35,VWS V14.00,2013-10-14 12:30:00,
2013-10-14 07:40:00,69.4,68.6,30.04,ESE,116,0.0,4.9,97,0.08,,---,0.35,VWS V14.00,2013-10-14 12:40:00,
2013-10-14 07:50:00,69.4,68.6,30.04,SSW,201,3.1,4.5,97,0.04,,---,0.35,VWS V14.00,2013-10-14 12:50:00,
2013-10-14 08:00:00,69.6,68.7,30.04,ESE,121,0.0,4.9,97,0.04,,---,0.35,VWS V14.00,2013-10-14 13:00:00,
2013-10-14 08:10:00,69.6,68.7,30.04,SE,131,0.0,3.6,97,0.04,,---,0.35,VWS V14.00,2013-10-14 13:10:00,
2013-10-14 08:20:00,69.6,68.7,30.04,ESE,120,0.0,3.6,97,0.00,,---,0.35,VWS V14.00,2013-10-14 13:20:00,
2013-10-14 08:30:00,69.8,68.9,30.04,SE,124,0.0,4.9,97,0.00,,---,0.35,VWS V14.00,2013-10-14 13:30:00,
2013-10-14 08:40:00,70.0,69.1,30.04,South,182,0.0,6.7,97,0.00,,---,0.35,VWS V14.00,2013-10-14 13:40:00,
2013-10-14 08:50:00,70.0,69.1,30.04,SSE,154,0.0,6.9,97,0.00,,---,0.35,VWS V14.00,2013-10-14 13:50:00,
2013-10-14 09:00:00,70.2,69.3,30.04,SE,126,5.4,5.4,97,0.00,,---,0.35,VWS V14.00,2013-10-14 14:00:00,
2013-10-14 09:10:00,70.3,69.4,30.04,SE,126,0.0,7.4,97,0.00,,---,0.35,VWS V14.00,2013-10-14 14:10:00,
2013-10-14 09:20:00,70.3,69.4,30.04,SSE,166,0.0,7.4,97,0.00,,---,0.35,VWS V14.00,2013-10-14 14:20:00,
2013-10-14 09:30:00,70.3,69.4,30.04,South,176,4.0,6.7,97,0.08,,---,0.43,VWS V14.00,2013-10-14 14:30:00,
2013-10-14 09:40:00,70.5,69.6,30.04,SE,130,0.0,6.7,97,0.08,,---,0.43,VWS V14.00,2013-10-14 14:40:00,
2013-10-14 09:50:00,70.5,69.6,30.04,SSW,206,3.1,6.7,97,0.08,,---,0.43,VWS V14.00,2013-10-14 14:50:00,
2013-10-14 10:00:00,70.5,69.6,30.04,SSE,158,0.0,6.7,97,0.08,,---,0.43,VWS V14.00,2013-10-14 15:00:00,
2013-10-14 10:10:00,70.5,69.6,30.04,ESE,117,0.0,8.3,97,0.08,,---,0.43,VWS V14.00,2013-10-14 15:10:00,
2013-10-14 10:20:00,70.7,69.8,30.04,South,178,3.1,6.9,97,0.08,,---,0.43,VWS V14.00,2013-10-14 15:20:00,
2013-10-14 10:30:00,70.9,70.0,30.04,SE,131,0.0,5.8,97,0.08,,---,0.43,VWS V14.00,2013-10-14 15:30:00,
2013-10-14 10:40:00,71.1,70.2,30.04,SW,232,0.0,5.8,97,0.00,,---,0.43,VWS V14.00,2013-10-14 15:40:00,
2013-10-14 10:50:00,71.1,70.2,30.04,SE,125,0.0,6.3,97,0.00,,---,0.43,VWS V14.00,2013-10-14 15:50:00,
2013-10-14 11:00:00,71.1,70.2,30.04,SE,127,0.0,5.4,97,0.00,,---,0.43,VWS V14.00,2013-10-14 16:00:00,
2013-10-14 11:10:00,71.2,70.3,30.04,South,182,0.0,5.8,97,0.00,,---,0.43,VWS V14.00,2013-10-14 16:10:00,
2013-10-14 11:20:00,71.2,70.3,30.04,SSE,158,0.0,5.8,97,0.00,,---,0.43,VWS V14.00,2013-10-14 16:20:00,
2013-10-14 11:30:00,71.2,70.3,30.04,SSW,198,0.0,4.9,97,0.04,,---,0.47,VWS V14.00,2013-10-14 16:30:00,
2013-10-14 11:40:00,71.2,70.3,30.04,SE,124,0.0,7.4,97,0.04,,---,0.47,VWS V14.00,2013-10-14 16:40:00,
2013-10-14 11:50:00,71.4,70.5,30.04,SE,124,0.0,5.4,97,0.04,,---,0.47,VWS V14.00,2013-10-14 16:50:00,
2013-10-14 12:00:00,71.6,70.7,30.04,SSW,193,0.0,0.0,97,0.04,,---,0.47,VWS V14.00,2013-10-14 17:00:00,
2013-10-14 12:10:00,71.6,70.7,30.01,SE,129,0.0,5.4,97,0.04,,---,0.47,VWS V14.00,2013-10-14 17:10:00,
2013-10-14 12:20:00,71.6,70.7,30.01,South,186,0.0,3.6,97,0.04,,---,0.47,VWS V14.00,2013-10-14 17:20:00,
2013-10-14 12:30:00,71.8,70.9,30.01,South,177,0.0,3.6,97,0.04,,---,0.47,VWS V14.00,2013-10-14 17:30:00,
2013-10-14 12:40:00,72.0,71.1,30.01,SW,214,0.0,4.0,97,0.00,,---,0.47,VWS V14.00,2013-10-14 17:40:00,
2013-10-14 12:50:00,72.1,71.2,30.01,SE,146,4.5,4.5,97,0.00,,---,0.47,VWS V14.00,2013-10-14 17:50:00,
2013-10-14 13:00:00,72.0,71.1,29.98,SSW,204,0.0,5.4,97,0.00,,---,0.47,VWS V14.00,2013-10-14 18:00:00,
2013-10-14 13:10:00,72.1,71.2,29.98,SE,141,0.0,3.1,97,0.00,,---,0.47,VWS V14.00,2013-10-14 18:10:00,
2013-10-14 13:20:00,72.1,71.2,29.98,WSW,238,0.0,0.0,97,0.00,,---,0.47,VWS V14.00,2013-10-14 18:20:00,
2013-10-14 13:30:00,72.3,71.4,29.98,SSW,211,0.0,5.4,97,0.00,,---,0.47,VWS V14.00,2013-10-14 18:30:00,
2013-10-14 13:40:00,72.1,71.2,29.98,ESE,103,0.0,0.0,97,0.04,,---,0.51,VWS V14.00,2013-10-14 18:40:00,
2013-10-14 13:50:00,72.3,71.4,29.98,SW,214,0.0,2.7,97,0.04,,---,0.51,VWS V14.00,2013-10-14 18:50:00,
2013-10-14 14:00:00,72.5,71.6,29.95,SE,127,0.0,0.0,97,0.04,,---,0.51,VWS V14.00,2013-10-14 19:00:00,
2013-10-14 14:10:00,72.9,72.0,29.95,ESE,112,0.0,0.0,97,0.04,,---,0.51,VWS V14.00,2013-10-14 19:10:00,
2013-10-14 14:20:00,73.2,72.3,29.95,SW,231,0.0,0.0,97,0.04,,---,0.51,VWS V14.00,2013-10-14 19:20:00,
2013-10-14 14:30:00,73.4,72.5,29.95,ESE,112,0.0,0.0,97,0.04,,---,0.51,VWS V14.00,2013-10-14 19:30:00,
2013-10-14 14:40:00,73.6,72.7,29.95,SW,236,0.0,0.0,97,0.04,,---,0.51,VWS V14.00,2013-10-14 19:40:00,
2013-10-14 14:50:00,73.6,72.7,29.95,SW,216,0.0,4.5,97,0.00,,---,0.51,VWS V14.00,2013-10-14 19:50:00,
2013-10-14 15:00:00,73.9,73.0,29.92,SE,125,0.0,2.7,97,0.00,,---,0.51,VWS V14.00,2013-10-14 20:00:00,
2013-10-14 15:10:00,74.1,73.2,29.92,South,186,0.0,5.4,97,0.00,,---,0.51,VWS V14.00,2013-10-14 20:10:00,
2013-10-14 15:20:00,73.6,72.7,29.92,SSW,198,0.0,6.7,97,0.00,,---,0.51,VWS V14.00,2013-10-14 20:20:00,
2013-10-14 15:30:00,72.5,71.6,29.92,SSW,213,3.1,9.2,97,0.00,,---,0.51,VWS V14.00,2013-10-14 20:30:00,
2013-10-14 15:40:00,72.0,71.1,29.92,SW,220,0.0,6.3,97,0.00,,---,0.51,VWS V14.00,2013-10-14 20:40:00,
2013-10-14 15:50:00,71.4,70.5,29.92,South,179,2.7,5.8,97,0.00,,---,0.51,VWS V14.00,2013-10-14 20:50:00,
2013-10-14 16:00:00,71.4,70.5,29.92,ESE,116,0.0,5.8,97,0.00,,---,0.51,VWS V14.00,2013-10-14 21:00:00,
2013-10-14 16:10:00,72.0,71.1,29.92,South,180,0.0,5.8,97,0.00,,---,0.51,VWS V14.00,2013-10-14 21:10:00,
2013-10-14 16:20:00,71.8,70.9,29.92,ESE,107,0.0,6.9,97,0.00,,---,0.51,VWS V14.00,2013-10-14 21:20:00,
2013-10-14 16:30:00,72.0,71.1,29.89,SW,219,0.0,3.1,97,0.00,,---,0.51,VWS V14.00,2013-10-14 21:30:00,
2013-10-14 16:40:00,72.1,71.2,29.89,ESE,111,0.0,4.5,97,0.00,,---,0.51,VWS V14.00,2013-10-14 21:40:00,
2013-10-14 16:50:00,72.3,71.4,29.89,ESE,121,0.0,2.7,97,0.00,,---,0.51,VWS V14.00,2013-10-14 21:50:00,
2013-10-14 17:00:00,72.7,71.8,29.89,SE,131,0.0,2.7,97,0.00,,---,0.51,VWS V14.00,2013-10-14 22:00:00,
2013-10-14 17:10:00,72.7,71.8,29.89,South,190,0.0,5.8,97,0.00,,---,0.51,VWS V14.00,2013-10-14 22:10:00,
2013-10-14 17:20:00,72.7,71.8,29.89,ESE,103,0.0,4.9,97,0.00,,---,0.51,VWS V14.00,2013-10-14 22:20:00,
2013-10-14 17:30:00,72.7,71.8,29.89,SW,229,0.0,4.9,97,0.00,,---,0.51,VWS V14.00,2013-10-14 22:30:00,
2013-10-14 17:40:00,72.9,72.0,29.92,SSE,153,4.5,4.5,97,0.00,,---,0.51,VWS V14.00,2013-10-14 22:40:00,
2013-10-14 17:50:00,72.9,72.0,29.92,SE,127,0.0,6.3,97,0.00,,---,0.51,VWS V14.00,2013-10-14 22:50:00,
2013-10-14 18:00:00,72.9,72.0,29.89,SSE,168,0.0,4.9,97,0.00,,---,0.51,VWS V14.00,2013-10-14 23:00:00,
2013-10-14 18:10:00,72.9,72.0,29.92,SSE,153,0.0,4.0,97,0.00,,---,0.51,VWS V14.00,2013-10-14 23:10:00,
2013-10-14 18:20:00,72.9,72.0,29.92,SSW,213,0.0,5.8,97,0.00,,---,0.51,VWS V14.00,2013-10-14 23:20:00,
2013-10-14 18:30:00,73.0,72.1,29.92,ESE,116,0.0,5.4,97,0.00,,---,0.51,VWS V14.00,2013-10-14 23:30:00,
2013-10-14 18:40:00,73.0,72.1,29.92,ESE,118,0.0,2.7,97,0.00,,---,0.51,VWS V14.00,2013-10-14 23:40:00,
2013-10-14 18:50:00,73.0,72.1,29.92,SE,127,0.0,6.3,97,0.00,,---,0.51,VWS V14.00,2013-10-14 23:50:00,
2013-10-14 19:00:00,73.0,72.1,29.92,ESE,113,0.0,0.0,97,0.00,,---,0.51,VWS V14.00,2013-10-15 00:00:00,
2013-10-14 19:10:00,73.0,72.1,29.92,SSW,205,0.0,3.6,97,0.00,,---,0.51,VWS V14.00,2013-10-15 00:10:00,
2013-10-14 19:20:00,73.0,72.1,29.92,SSE,148,3.6,6.3,97,0.00,,---,0.51,VWS V14.00,2013-10-15 00:20:00,
2013-10-14 19:30:00,73.0,72.1,29.92,SE,141,0.0,3.6,97,0.00,,---,0.51,VWS V14.00,2013-10-15 00:30:00,
2013-10-14 19:40:00,73.0,72.1,29.92,SSE,155,0.0,0.0,97,0.00,,---,0.51,VWS V14.00,2013-10-15 00:40:00,
2013-10-14 19:50:00,73.0,72.1,29.92,SSE,152,0.0,0.0,97,0.00,,---,0.51,VWS V14.00,2013-10-15 00:50:00,
2013-10-14 20:00:00,73.0,72.1,29.92,SE,126,0.0,5.8,97,0.00,,---,0.51,VWS V14.00,2013-10-15 01:00:00,
2013-10-14 20:10:00,73.0,72.1,29.92,SSE,152,0.0,3.1,97,0.00,,---,0.51,VWS V14.00,2013-10-15 01:10:00,
2013-10-14 20:20:00,73.0,72.1,29.92,ESE,109,0.0,0.0,97,0.00,,---,0.51,VWS V14.00,2013-10-15 01:20:00,
2013-10-14 20:30:00,73.0,72.1,29.92,SSW,199,0.0,0.0,97,0.00,,---,0.51,VWS V14.00,2013-10-15 01:30:00,
2013-10-14 20:40:00,72.9,72.0,29.92,South,182,0.0,2.7,97,0.00,,---,0.51,VWS V14.00,2013-10-15 01:40:00,
2013-10-14 20:50:00,72.7,71.8,29.92,WSW,255,0.0,0.0,97,0.00,,---,0.51,VWS V14.00,2013-10-15 01:50:00,
2013-10-14 21:00:00,72.7,71.8,29.92,SSE,155,0.0,2.7,97,0.00,,---,0.51,VWS V14.00,2013-10-15 02:00:00,
2013-10-14 21:10:00,72.3,71.4,29.92,SSE,156,2.7,6.7,97,0.00,,---,0.51,VWS V14.00,2013-10-15 02:10:00,
2013-10-14 21:20:00,72.3,71.4,29.92,SE,140,0.0,4.0,97,0.00,,---,0.51,VWS V14.00,2013-10-15 02:20:00,
2013-10-14 21:30:00,72.1,71.2,29.92,SSE,154,0.0,0.0,97,0.00,,---,0.51,VWS V14.00,2013-10-15 02:30:00,
2013-10-14 21:40:00,72.1,71.2,29.95,SSE,153,0.0,2.7,97,0.00,,---,0.51,VWS V14.00,2013-10-15 02:40:00,
2013-10-14 21:50:00,72.0,71.1,29.95,ESE,116,0.0,4.0,97,0.00,,---,0.51,VWS V14.00,2013-10-15 02:50:00,
2013-10-14 22:00:00,72.0,71.1,29.95,SSE,154,0.0,0.0,97,0.00,,---,0.51,VWS V14.00,2013-10-15 03:00:00,
2013-10-14 22:10:00,72.0,71.1,29.95,SE,143,2.7,2.7,97,0.00,,---,0.51,VWS V14.00,2013-10-15 03:10:00,
2013-10-14 22:20:00,72.1,71.2,29.95,SSW,193,0.0,3.1,97,0.00,,---,0.51,VWS V14.00,2013-10-15 03:20:00,
2013-10-14 22:30:00,72.1,71.2,29.92,SSE,154,0.0,3.6,97,0.00,,---,0.51,VWS V14.00,2013-10-15 03:30:00,
2013-10-14 22:40:00,72.1,71.2,29.95,SSE,152,0.0,0.0,97,0.00,,---,0.51,VWS V14.00,2013-10-15 03:40:00,
2013-10-14 22:50:00,72.3,71.4,29.95,West,261,0.0,0.0,97,0.00,,---,0.51,VWS V14.00,2013-10-15 03:50:00,
2013-10-14 23:00:00,72.3,71.4,29.92,SW,219,0.0,3.1,97,0.00,,---,0.51,VWS V14.00,2013-10-15 04:00:00,
2013-10-14 23:10:00,72.3,71.4,29.92,East,100,0.0,5.4,97,0.00,,---,0.51,VWS V14.00,2013-10-15 04:10:00,
2013-10-14 23:20:00,72.1,71.2,29.92,SSW,195,0.0,3.1,97,0.00,,---,0.51,VWS V14.00,2013-10-15 04:20:00,
2013-10-14 23:30:00,72.1,71.2,29.92,SE,134,0.0,3.1,97,0.00,,---,0.51,VWS V14.00,2013-10-15 04:30:00,
2013-10-14 23:40:00,72.0,71.1,29.92,SE,124,0.0,2.7,97,0.00,,---,0.51,VWS V14.00,2013-10-15 04:40:00,
2013-10-14 23:50:00,72.0,71.1,29.92,South,179,0.0,7.4,97,0.00,,---,0.51,VWS V14.00,2013-10-15 04:50:00,